Terminal Aerodrome Forecast
Issued by NWS Tulsa, OK

Home | Current Version | Previous Version | Text Only | Print | Product List | Glossary On
Versions: 1 2 3 4 5 6 7 8 9 10 11 12 13 14 15 16 17
000
FTPQ31 PGUM 262211 RRP
TAFGRO
TAF

TAF
PTSA 262211Z 2622/2718 07007KT P6SM VCSH SCT016 BKN130 OVC300
      TEMPO 2622/2702 4SM SHRA BKN015 OVC100=

USA.gov is the U.S. government's official web portal to all federal, state and local government web resources and services.